Location: Newark
(21.0333°N, 105.8500°E)
Time: 02:54:01
(UTC+00:00)

Envisat - Pass Details

Date: 16 December 2019
Orbit: 764 x 766 km, 98.1° (Epoch: 23 January)

Event Time Altitude Azimuth Distance (km) Brightness Sun altitude
Rises 22:45:47 0° 30° (NNE) 3,223 6.3 -9.6°
Reaches altitude 10° 22:48:27 10° 42° (NE) 2,295 5.8 -9.0°
Maximum altitude 22:52:38 26° 98° (E) 1,468 5.5 -8.1°
Drops below altitude 10° 22:56:47 10° 154° (SSE) 2,288 6.2 -7.2°
Sets 22:59:25 0° 167° (SSE) 3,212 6.8 -6.6°
